TimeCDT,TemperatureF,Dew PointF,Humidity,Sea Level PressureIn,VisibilityMPH,Wind Direction,Wind SpeedMPH,Gust SpeedMPH,PrecipitationIn,Events,Conditions,WindDirDegrees,DateUTC
12:53 AM,66.0,46.9,50,29.72,10.0,SW,5.8,-,N/A,,Clear,220,2013-05-14 05:53:00
1:53 AM,66.0,45.0,47,29.70,10.0,SSW,9.2,-,N/A,,Clear,200,2013-05-14 06:53:00
2:53 AM,66.0,44.1,45,29.68,10.0,SSW,8.1,-,N/A,,Clear,200,2013-05-14 07:53:00
3:53 AM,71.1,45.0,39,29.66,10.0,South,9.2,-,N/A,,Clear,190,2013-05-14 08:53:00
4:53 AM,68.0,46.0,45,29.63,10.0,South,9.2,-,N/A,,Clear,180,2013-05-14 09:53:00
5:53 AM,62.1,46.9,58,29.61,10.0,South,9.2,-,N/A,,Clear,170,2013-05-14 10:53:00
6:53 AM,64.0,48.0,56,29.59,10.0,SSE,9.2,-,N/A,,Clear,160,2013-05-14 11:53:00
7:53 AM,70.0,46.9,44,29.56,10.0,SSW,10.4,-,N/A,,Clear,200,2013-05-14 12:53:00
8:53 AM,80.1,46.0,30,29.57,10.0,WSW,10.4,17.3,N/A,,Clear,250,2013-05-14 13:53:00
9:53 AM,86.0,46.0,25,29.55,10.0,West,19.6,27.6,N/A,,Clear,260,2013-05-14 14:53:00
10:53 AM,89.1,45.0,22,29.59,10.0,WNW,26.5,33.4,N/A,,Clear,300,2013-05-14 15:53:00
11:53 AM,91.9,45.0,20,29.61,10.0,NNW,18.4,26.5,N/A,,Clear,330,2013-05-14 16:53:00
12:53 PM,93.9,46.0,19,29.62,10.0,NNW,19.6,33.4,N/A,,Clear,340,2013-05-14 17:53:00
1:53 PM,95.0,46.0,19,29.63,10.0,NNW,24.2,28.8,N/A,,Clear,340,2013-05-14 18:53:00
2:53 PM,93.0,41.0,16,29.66,10.0,North,24.2,38.0,N/A,,Clear,350,2013-05-14 19:53:00
3:53 PM,91.0,41.0,17,29.68,10.0,NNW,24.2,31.1,N/A,,Clear,340,2013-05-14 20:53:00
4:53 PM,90.0,30.9,12,29.69,10.0,NNW,24.2,33.4,N/A,,Clear,330,2013-05-14 21:53:00
5:53 PM,88.0,30.9,13,29.70,10.0,NNW,17.3,24.2,N/A,,Clear,340,2013-05-14 22:53:00
6:53 PM,86.0,30.0,13,29.70,10.0,NNW,21.9,26.5,N/A,,Clear,330,2013-05-14 23:53:00
7:53 PM,82.0,30.0,15,29.72,10.0,NNW,15.0,-,N/A,,Clear,340,2013-05-15 00:53:00
8:53 PM,73.9,30.9,21,29.73,10.0,NW,9.2,-,N/A,,Clear,320,2013-05-15 01:53:00
9:53 PM,71.1,34.0,26,29.78,10.0,North,10.4,-,N/A,,Clear,350,2013-05-15 02:53:00
10:53 PM,66.0,39.9,38,29.81,10.0,North,12.7,-,N/A,,Clear,360,2013-05-15 03:53:00
11:53 PM,62.1,42.1,48,29.81,10.0,North,10.4,-,N/A,,Clear,360,2013-05-15 04:53:00